Location: Saint-Palais-sur-Mer
(45.6429°N, 1.0859°W)
Time: 16:25:39
(UTC+01:00)

S-56A Canister/Altair - Pass Details

Date: 17 February 2026
Orbit: 633 x 2484 km, 38.9° (Epoch: 16 March)

Event Time Altitude Azimuth Distance (km) Brightness Sun altitude
Exits shadow 04:28:08 48° 161° (SSE) 2,140 9.5 -37.7°
Drops below altitude 10° 04:37:59 10° 120° (ESE) 4,637 11.8 -36.1°
Sets 04:42:16 0° 116° (ESE) 5,847 12.5 -35.4°
